Regional Weather Roundup
Issued by NWS Raleigh/Durham, NC

Home | Current Version | Previous Version | Text Only | Print | Product List | Glossary On
Versions: 1 2 3 4 5 6 7 8 9 10 11 12 13 14 15 16 17 18 19 20 21 22 23 24 25 26 27 28 29 30 31 32 33 34 35 36 37 38 39 40 41 42 43 44 45 46 47 48 49 50
000
ASUS42 KRAH 021810
RWRRAH
NORTH CAROLINA WEATHER ROUNDUP
NATIONAL WEATHER SERVICE RALEIGH NC
100 PM EST FRI DEC 02 2016

NOTE: "FAIR" INDICATES FEW OR NO CLOUDS BELOW 12,000 FEET WITH NO
SIGNIFICANT WEATHER AND/OR OBSTRUCTIONS TO VISIBILITY.

NCZ001-053-055-056-065-067-021900-
WESTERN NORTH CAROLINA

CITY           SKY/WX    TMP DP  RH WIND       PRES   REMARKS
ASHEVILLE      SUNNY     51  22  31 N20G26    30.16F
JEFFERSON      MOSUNNY   41  24  51 W16G24    30.10R
MORGANTON      SUNNY     55  26  32 CALM      30.17F
HICKORY        SUNNY     54  27  35 W9        30.13F
RUTHERFORDTON  SUNNY     54  29  38 CALM      30.17S
MOUNT AIRY     SUNNY     53  29  40 NW9G17    30.13F
BOONE          SUNNY     42  23  46 NW22G33   30.11R
$$

NCZ021-022-025-041-071-084-088-021900-
CENTRAL NORTH CAROLINA

CITY           SKY/WX    TMP DP  RH WIND       PRES   REMARKS
CHARLOTTE      MOSUNNY   55  29  36 W7        30.16F
GREENSBORO     MOSUNNY   53  29  39 W13G25    30.11F
WINSTON-SALEM  SUNNY     52  25  35 NW9G20    30.12F
RALEIGH-DURHAM MOSUNNY   57  28  33 W8        30.10F
FORT BRAGG     SUNNY     57  29  33 W14       30.11F
FAYETTEVILLE   SUNNY     56  31  38 VRB6      30.11F
BURLINGTON     SUNNY     55  29  36 W15       30.10F
LAURINBURG     SUNNY     57  31  37 NW10      30.13F
$$

NCZ011-015-027-028-043-044-047-080-103-021900-
NORTHEASTERN NORTH CAROLINA

CITY           SKY/WX    TMP DP  RH WIND       PRES   REMARKS
ROCKY MT-WILSO SUNNY     55  31  39 NW8G16    30.10F
GREENVILLE     SUNNY     54  32  43 W7        30.11F
WASHINGTON     SUNNY     57  32  38 W6        30.10F
ELIZABETH CITY SUNNY     54  32  43 W9        30.07F
MANTEO         SUNNY     52  32  47 NW7       30.08F
CAPE HATTERAS  SUNNY     56  41  57 VRB5      30.07F
$$

NCZ078-087-090-091-093-098-101-021900-
SOUTHEASTERN NORTH CAROLINA

CITY           SKY/WX    TMP DP  RH WIND       PRES   REMARKS
LUMBERTON      SUNNY     57  32  38 N10       30.12F
GOLDSBORO      SUNNY     56  29  34 NW9       30.08F
KINSTON        SUNNY     55  30  38 W6        30.10F
KENANSVILLE    SUNNY     55  30  38 W8        30.11F
NEW BERN       SUNNY     56  33  42 NW7       30.10F
CHERRY POINT   SUNNY     57  36  45 N10       30.09F
BEAUFORT       SUNNY     58  40  51 W6        30.08F
JACKSONVILLE   SUNNY     57  32  38 NW10      30.09F
WILMINGTON     SUNNY     58  33  39 N13       30.10F
$$




USA.gov is the U.S. government's official web portal to all federal, state and local government web resources and services.